This demonstration page uses our WeatherBlox Daily Observations layout. Learn more.

Left ArrowRight Arrow

34.16533, -84.80231

Hourly Observations for December 23, 2017

Temp ( °F °C ) Dew Point ( °F °C ) Humidity (%) Winds ( mph kmh ) Pressure ( in mb ) Visibility ( mi km ) Precip ( " mm )
12:37 am 00:37 Mostly Cloudy 58 14.4 58 14.4 100 100 SSE 10 17 30.03 1017 10 16 0.00 0.00
12:53 am 00:53 Cloudy 58 14.4 58 14.4 100 100 SSE 12 19 30.04 1017 10 16 0.00 0.00
1:48 am 01:48 Cloudy 59 15 59 15 100 100 SSE 9 15 30.03 1017 10 16 0.00 0.00
1:53 am 01:53 Cloudy 59 15 59 15 100 100 SSE 8 13 30.04 1017 10 16 0.00 0.00
2:53 am 02:53 Cloudy 60 15.6 60 15.6 100 100 SSE 6 9 30.02 1017 10 16 0.00 0.00
3:40 am 03:40 Cloudy 61 16.1 61 16.1 100 100 S 8 13 30.03 1017 10 16 0.00 0.00
3:53 am 03:53 Cloudy 62 16.7 61 16.1 96 96 S 7 11 30.00 1016 10 16 0.00 0.00
4:53 am 04:53 Cloudy 63 17.2 62 16.7 97 97 S 7 11 29.99 1016 10 16 0.00 0.00
5:53 am 05:53 Cloudy 63 17.2 62 16.7 97 97 S 6 9 29.97 1015 10 16 0.00 0.03
6:43 am 06:43 Cloudy 64 17.8 62 16.7 93 93 S 9 15 30.00 1016 10 16 0.00 0.00
6:50 am 06:50 Cloudy 64 18 63 17 94 94 S 9 15 30.00 1016 10 16 0.00 0.00
6:53 am 06:53 Cloudy 64 17.8 62 16.7 93 93 S 8 13 29.96 1015 10 16 0.00 0.00
7:53 am 07:53 Cloudy 65 18.3 62 16.7 90 90 S 8 13 29.96 1014 10 16 0.00 0.00
8:53 am 08:53 Cloudy 66 18.9 62 16.7 87 87 S 10 17 29.95 1014 10 16 0.00 0.00
9:53 am 09:53 Mostly Cloudy 67 19.4 62 16.7 84 84 S 7 11 29.93 1014 10 16 0.00 0.00
10:53 am 10:53 Cloudy 69 20.6 62 16.7 78 78 SSW 8 13 29.93 1013 10 16 0.00 0.00
11:04 am 11:04 Cloudy 69 20.6 62 16.7 78 78 SSW 10 17 29.94 1014 10 16 0.00 0.00
11:53 am 11:53 Cloudy 70 21.1 62 16.7 76 76 SSW 13 20 29.89 1012 10 16 0.00 0.00
12:37 pm 12:37 Cloudy with Light Rain 68 20 63 17.2 84 84 VRB 7 11 29.91 1013 5 8 0.01 0.25
12:46 pm 12:46 Cloudy with Rain 66 18.9 65 18.3 96 96 VRB 6 9 29.94 1014 2 2 0.07 1.78
12:49 pm 12:49 Cloudy with Heavy Rain 64 18 64 18 100 100 VRB 6 9 29.94 1014 1 1 0.13 3.30
12:53 pm 12:53 Cloudy with Heavy Rain 64 17.8 64 17.8 100 100 undefined N/A 29.93 1013 1 1 0.16 4.06
1:04 pm 13:04 Cloudy with Rain 63 17.2 63 17.2 100 100 VRB 3 6 29.94 1014 2 3 0.05 1.27
1:08 pm 13:08 Cloudy with Light Rain 63 17.2 63 17.2 100 100 undefined N/A 29.94 1014 3 5 0.05 1.27
1:21 pm 13:21 Cloudy with Light Rain 63 17.2 62 16.7 97 97 VRB 6 9 29.94 1014 10 16 0.05 1.27
1:31 pm 13:31 Cloudy with Rain 62 16.7 62 16.7 100 100 VRB 5 7 29.97 1015 2 3 0.08 2.03
1:37 pm 13:37 Cloudy with Light Rain 62 16.7 62 16.7 100 100 VRB 5 7 29.97 1015 3 5 0.08 2.03
1:48 pm 13:48 Cloudy with Light Rain 63 17 61 16 94 94 VRB 5 7 29.94 1014 9 14 0.09 2.29
1:53 pm 13:53 Cloudy 61 16.1 60 15.6 97 97 VRB 5 7 29.93 1014 10 16 0.09 2.29
2:25 pm 14:25 Cloudy 62 16.7 60 15.6 93 93 W 3 6 29.97 1015 10 16 0.00 0.03
2:53 pm 14:53 Cloudy 62 16.7 60 15.6 93 93 undefined N/A 29.95 1014 10 16 0.00 0.03
3:12 pm 15:12 Cloudy 62 16.7 58 14.4 86 86 VRB 3 6 29.97 1015 10 16 0.00 0.00
3:50 pm 15:50 Cloudy 61 16 55 13 83 83 undefined N/A 30.00 1016 10 16 0.00 0.00
3:53 pm 15:53 Cloudy 60 15.6 56 13.3 86 86 VRB 7 11 29.98 1015 10 16 0.00 0.00
4:53 pm 16:53 Cloudy 55 12.8 50 10 83 83 VRB 3 6 30.01 1016 10 16 0.00 0.00
5:14 pm 17:14 Mostly Cloudy 54 12.2 50 10 87 87 Calm 30.06 1018 10 16 0.00 0.00
5:53 pm 17:53 Clear 52 11.1 50 10 93 93 Calm 30.02 1017 10 16 0.00 0.00
6:28 pm 18:28 Mostly Cloudy 52 11.1 49 9.4 89 89 Calm 30.06 1018 10 16 0.00 0.00
6:53 pm 18:53 Cloudy 52 11.1 49 9.4 89 89 Calm 30.04 1017 10 16 0.00 0.00
7:53 pm 19:53 Cloudy 51 10.6 48 8.9 89 89 VRB 3 6 30.05 1018 10 16 0.00 0.00
8:53 pm 20:53 Cloudy 50 10 45 7.2 83 83 NNW 7 11 30.06 1018 10 16 0.00 0.00
9:53 pm 21:53 Cloudy 49 9.4 45 7.2 86 86 VRB 5 7 30.06 1018 10 16 0.00 0.00
10:53 pm 22:53 Cloudy 49 9.4 44 6.7 83 83 VRB 5 7 30.08 1019 10 16 0.00 0.00
11:53 pm 23:53 Cloudy 48 8.9 44 6.7 86 86 undefined N/A 30.07 1018 10 16 0.00 0.00

Powered by AerisWeather